Back to catalog

FENGYUN 1C DEB

AliveSSO
NORAD 30524·DEBRIS·🇨🇳 China

Launched May 10, 1999 from Taiyuan Satellite Launch Center

Loading…

Next Passes (next 24 hours)

TLE

FreshSource: Space-Track

Epoch: Sep 12, 2026, 23:42 UTC

1 30524U 99025AJN 26255.98799716  .00004398  00000-0  27903-2 0  9992
2 30524  99.3226  75.4716 0199061 226.6312 131.8118 13.95149215977067

Track FENGYUN 1C DEB in real time with AllMySat

Download on the App Store